Time,TemperatureF,DewpointF,PressureIn,WindDirection,WindDirectionDegrees,WindSpeedMPH,WindSpeedGustMPH,Humidity,HourlyPrecipIn,Conditions,Clouds,dailyrainin,SoftwareType,DateUTC
2013-05-16 00:02:00,73.0,33.0,29.92,NW,305,0.0,0.0,23,0.00,,,0.00,,2013-05-16 05:02:00,
2013-05-16 00:12:00,73.0,33.0,29.92,NW,305,0.0,0.0,23,0.00,,,0.00,,2013-05-16 05:12:00,
2013-05-16 00:22:00,73.0,34.0,29.92,NW,308,0.0,0.0,24,0.00,,,0.00,,2013-05-16 05:22:00,
2013-05-16 00:32:00,73.0,34.0,29.92,NW,308,0.0,0.0,24,0.00,,,0.00,,2013-05-16 05:32:00,
2013-05-16 00:42:00,73.0,34.0,29.92,NW,308,0.0,0.0,24,0.00,,,0.00,,2013-05-16 05:42:00,
2013-05-16 00:52:00,73.0,33.0,29.91,WNW,289,1.0,3.0,23,0.00,,,0.00,,2013-05-16 05:52:00,
2013-05-16 01:01:00,73.0,33.0,29.91,WNW,289,1.0,3.0,23,0.00,,,0.00,,2013-05-16 06:01:00,
2013-05-16 01:12:00,73.0,33.0,29.91,WNW,289,1.0,3.0,23,0.00,,,0.00,,2013-05-16 06:12:00,
2013-05-16 01:22:00,72.0,33.0,29.91,NW,318,0.0,3.0,24,0.00,,,0.00,,2013-05-16 06:22:00,
2013-05-16 01:33:00,72.0,33.0,29.91,NW,318,0.0,3.0,24,0.00,,,0.00,,2013-05-16 06:33:00,
2013-05-16 01:43:00,72.0,33.0,29.91,NW,318,0.0,3.0,24,0.00,,,0.00,,2013-05-16 06:43:00,
2013-05-16 01:53:00,72.0,34.0,29.90,NW,304,0.0,0.0,25,0.00,,,0.00,,2013-05-16 06:53:00,
2013-05-16 02:02:00,72.0,34.0,29.90,NW,304,0.0,0.0,25,0.00,,,0.00,,2013-05-16 07:02:00,
2013-05-16 02:12:00,72.0,34.0,29.90,NW,304,0.0,0.0,25,0.00,,,0.00,,2013-05-16 07:12:00,
2013-05-16 02:24:00,70.0,34.0,29.90,WNW,289,0.0,0.0,27,0.00,,,0.00,,2013-05-16 07:24:00,
2013-05-16 02:34:00,70.0,34.0,29.90,WNW,289,0.0,0.0,27,0.00,,,0.00,,2013-05-16 07:34:00,
2013-05-16 02:44:00,70.0,34.0,29.90,WNW,289,0.0,0.0,27,0.00,,,0.00,,2013-05-16 07:44:00,
2013-05-16 02:54:00,68.0,34.0,29.91,NW,309,0.0,0.0,28,0.00,,,0.00,,2013-05-16 07:54:00,
2013-05-16 03:03:00,68.0,34.0,29.91,NW,309,0.0,0.0,28,0.00,,,0.00,,2013-05-16 08:03:00,
2013-05-16 03:13:00,68.0,34.0,29.91,NW,309,0.0,0.0,28,0.00,,,0.00,,2013-05-16 08:13:00,
2013-05-16 03:23:00,67.0,32.0,29.91,WNW,301,0.0,0.0,27,0.00,,,0.00,,2013-05-16 08:23:00,
2013-05-16 03:34:00,67.0,32.0,29.91,WNW,301,0.0,0.0,27,0.00,,,0.00,,2013-05-16 08:34:00,
2013-05-16 03:45:00,67.0,32.0,29.91,WNW,301,0.0,0.0,27,0.00,,,0.00,,2013-05-16 08:45:00,
2013-05-16 03:55:00,67.0,33.0,29.89,WNW,296,0.0,0.0,28,0.00,,,0.00,,2013-05-16 08:55:00,
2013-05-16 04:04:00,67.0,33.0,29.89,WNW,296,0.0,0.0,28,0.00,,,0.00,,2013-05-16 09:04:00,
2013-05-16 04:14:00,66.0,33.0,29.89,NW,304,0.0,2.0,29,0.00,,,0.00,,2013-05-16 09:14:00,
2013-05-16 04:24:00,66.0,33.0,29.89,NW,304,0.0,2.0,29,0.00,,,0.00,,2013-05-16 09:24:00,
2013-05-16 04:35:00,66.0,33.0,29.89,NW,304,0.0,2.0,29,0.00,,,0.00,,2013-05-16 09:35:00,
2013-05-16 04:45:00,66.0,33.0,29.89,NW,304,0.0,2.0,29,0.00,,,0.00,,2013-05-16 09:45:00,
2013-05-16 04:55:00,66.0,33.0,29.90,WNW,284,0.0,0.0,29,0.00,,,0.00,,2013-05-16 09:55:00,
2013-05-16 05:05:00,66.0,33.0,29.90,WNW,284,0.0,0.0,29,0.00,,,0.00,,2013-05-16 10:05:00,
2013-05-16 05:15:00,65.0,33.0,29.90,WNW,289,0.0,0.0,30,0.00,,,0.00,,2013-05-16 10:15:00,
2013-05-16 05:24:00,65.0,33.0,29.90,WNW,289,0.0,0.0,30,0.00,,,0.00,,2013-05-16 10:24:00,
2013-05-16 05:36:00,65.0,33.0,29.90,WNW,289,0.0,0.0,30,0.00,,,0.00,,2013-05-16 10:36:00,
2013-05-16 05:45:00,65.0,33.0,29.90,WNW,289,0.0,0.0,30,0.00,,,0.00,,2013-05-16 10:45:00,
2013-05-16 05:56:00,65.0,31.0,29.90,WNW,291,0.0,0.0,28,0.00,,,0.00,,2013-05-16 10:56:00,
2013-05-16 06:05:00,65.0,31.0,29.90,WNW,291,0.0,0.0,28,0.00,,,0.00,,2013-05-16 11:05:00,
2013-05-16 06:14:00,65.0,31.0,29.90,WNW,291,0.0,0.0,28,0.00,,,0.00,,2013-05-16 11:14:00,
2013-05-16 06:25:00,65.0,30.0,29.90,WNW,287,0.0,0.0,27,0.00,,,0.00,,2013-05-16 11:25:00,
2013-05-16 06:35:00,65.0,30.0,29.90,WNW,287,0.0,0.0,27,0.00,,,0.00,,2013-05-16 11:35:00,
2013-05-16 06:46:00,65.0,30.0,29.90,WNW,287,0.0,0.0,27,0.00,,,0.00,,2013-05-16 11:46:00,
2013-05-16 06:57:00,67.0,31.0,29.90,NW,313,1.0,3.0,26,0.00,,,0.00,,2013-05-16 11:57:00,
2013-05-16 07:06:00,67.0,31.0,29.90,NW,313,1.0,3.0,26,0.00,,,0.00,,2013-05-16 12:06:00,
2013-05-16 07:13:00,67.0,31.0,29.90,NW,313,1.0,3.0,26,0.00,,,0.00,,2013-05-16 12:13:00,
2013-05-16 07:23:00,67.0,31.0,29.91,WNW,284,0.0,0.0,26,0.00,,,0.00,,2013-05-16 12:23:00,
2013-05-16 07:34:00,67.0,31.0,29.91,WNW,284,0.0,0.0,26,0.00,,,0.00,,2013-05-16 12:34:00,
2013-05-16 07:45:00,67.0,31.0,29.91,WNW,284,0.0,0.0,26,0.00,,,0.00,,2013-05-16 12:45:00,
2013-05-16 07:53:00,66.0,30.0,29.93,WNW,294,1.0,6.0,26,0.00,,,0.00,,2013-05-16 12:53:00,
2013-05-16 08:04:00,66.0,30.0,29.93,WNW,294,1.0,6.0,26,0.00,,,0.00,,2013-05-16 13:04:00,
2013-05-16 08:12:00,66.0,30.0,29.93,WNW,294,1.0,6.0,26,0.00,,,0.00,,2013-05-16 13:12:00,
2013-05-16 08:26:00,67.0,30.0,29.93,NW,304,5.0,12.0,25,0.00,,,0.00,,2013-05-16 13:26:00,
2013-05-16 08:35:00,67.0,30.0,29.93,NW,304,5.0,12.0,25,0.00,,,0.00,,2013-05-16 13:35:00,
2013-05-16 08:44:00,67.0,30.0,29.93,NW,304,5.0,12.0,25,0.00,,,0.00,,2013-05-16 13:44:00,
2013-05-16 08:55:00,69.0,31.0,29.94,West,281,3.0,12.0,24,0.00,,,0.00,,2013-05-16 13:55:00,
2013-05-16 09:05:00,69.0,31.0,29.94,West,281,3.0,12.0,24,0.00,,,0.00,,2013-05-16 14:05:00,
2013-05-16 09:16:00,69.0,31.0,29.94,West,281,3.0,12.0,24,0.00,,,0.00,,2013-05-16 14:16:00,
2013-05-16 09:23:00,72.0,31.0,29.94,WNW,285,3.0,9.0,22,0.00,,,0.00,,2013-05-16 14:23:00,
2013-05-16 09:37:00,72.0,31.0,29.94,WNW,285,3.0,9.0,22,0.00,,,0.00,,2013-05-16 14:37:00,
2013-05-16 09:47:00,72.0,31.0,29.94,WNW,285,3.0,9.0,22,0.00,,,0.00,,2013-05-16 14:47:00,
2013-05-16 09:56:00,74.0,33.0,29.95,West,267,3.0,8.0,22,0.00,,,0.00,,2013-05-16 14:56:00,
2013-05-16 10:08:00,74.0,33.0,29.95,West,267,3.0,8.0,22,0.00,,,0.00,,2013-05-16 15:08:00,
2013-05-16 10:17:00,74.0,33.0,29.95,West,267,3.0,8.0,22,0.00,,,0.00,,2013-05-16 15:17:00,
2013-05-16 10:28:00,78.0,32.0,29.96,NW,304,0.0,2.0,19,0.00,,,0.00,,2013-05-16 15:28:00,
2013-05-16 10:40:00,78.0,32.0,29.96,NW,304,0.0,2.0,19,0.00,,,0.00,,2013-05-16 15:40:00,
2013-05-16 10:50:00,82.0,31.0,29.97,NNW,328,1.0,15.0,16,0.00,,,0.00,,2013-05-16 15:50:00,
2013-05-16 11:00:00,82.0,31.0,29.97,NNW,328,1.0,15.0,16,0.00,,,0.00,,2013-05-16 16:00:00,
2013-05-16 11:09:00,82.0,31.0,29.97,NNW,328,1.0,15.0,16,0.00,,,0.00,,2013-05-16 16:09:00,
2013-05-16 11:20:00,82.0,31.0,29.97,NNW,328,1.0,15.0,16,0.00,,,0.00,,2013-05-16 16:20:00,
2013-05-16 11:30:00,84.0,30.0,29.96,NW,313,1.0,10.0,14,0.00,,,0.00,,2013-05-16 16:30:00,
2013-05-16 11:40:00,84.0,-99.9,29.96,NW,313,1.0,10.0,14,0.00,,,0.00,,2013-05-16 16:40:00,
2013-05-16 11:51:00,84.0,30.0,29.96,NW,313,1.0,10.0,14,0.00,,,0.00,,2013-05-16 16:51:00,
2013-05-16 12:01:00,86.0,31.0,29.96,WNW,295,1.0,10.0,14,0.00,,,0.00,,2013-05-16 17:01:00,
2013-05-16 12:10:00,86.0,31.0,29.96,WNW,295,1.0,10.0,14,0.00,,,0.00,,2013-05-16 17:10:00,
2013-05-16 12:20:00,86.0,31.0,29.96,WNW,295,1.0,10.0,14,0.00,,,0.00,,2013-05-16 17:20:00,
2013-05-16 12:30:00,87.0,34.0,29.95,WSW,251,1.0,9.0,15,0.00,,,0.00,,2013-05-16 17:30:00,
2013-05-16 12:40:00,87.0,34.0,29.95,WSW,251,1.0,9.0,15,0.00,,,0.00,,2013-05-16 17:40:00,
2013-05-16 12:50:00,-999.0,-99.9,29.95,West,268,3.0,11.0,14,0.00,,,0.00,,2013-05-16 17:50:00,
2013-05-16 13:00:00,-999.0,-99.9,29.95,West,268,3.0,11.0,14,0.00,,,0.00,,2013-05-16 18:00:00,
2013-05-16 13:10:00,89.0,34.0,29.95,West,268,3.0,11.0,14,0.00,,,0.00,,2013-05-16 18:10:00,
2013-05-16 13:20:00,89.0,34.0,29.95,West,268,3.0,11.0,14,0.00,,,0.00,,2013-05-16 18:20:00,
2013-05-16 13:30:00,-999.0,-99.9,29.95,West,280,5.0,18.0,14,0.00,,,0.00,,2013-05-16 18:30:00,
2013-05-16 13:40:00,-999.0,-99.9,29.95,West,280,5.0,18.0,14,0.00,,,0.00,,2013-05-16 18:40:00,
2013-05-16 13:50:00,-999.0,-99.9,29.95,West,280,5.0,18.0,14,0.00,,,0.00,,2013-05-16 18:50:00,
2013-05-16 14:00:00,-999.0,-99.9,29.95,WNW,288,4.0,19.0,14,0.00,,,0.00,,2013-05-16 19:00:00,
2013-05-16 14:10:00,89.0,34.0,29.95,WNW,288,4.0,19.0,14,0.00,,,0.00,,2013-05-16 19:10:00,
2013-05-16 14:20:00,89.0,34.0,29.95,WNW,288,4.0,19.0,14,0.00,,,0.00,,2013-05-16 19:20:00,
2013-05-16 14:30:00,90.0,33.0,29.93,West,267,6.0,17.0,13,0.00,,,0.00,,2013-05-16 19:30:00,
2013-05-16 14:40:00,90.0,-99.9,29.93,West,267,6.0,17.0,13,0.00,,,0.00,,2013-05-16 19:40:00,
2013-05-16 14:51:00,-999.0,-99.9,29.93,West,267,6.0,17.0,13,0.00,,,0.00,,2013-05-16 19:51:00,
2013-05-16 15:00:00,-999.0,-99.9,29.92,WSW,243,2.0,16.0,13,0.00,,,0.00,,2013-05-16 20:00:00,
2013-05-16 15:10:00,-999.0,-99.9,29.92,WSW,243,2.0,16.0,13,0.00,,,0.00,,2013-05-16 20:10:00,
2013-05-16 15:20:00,91.0,-99.9,29.93,West,281,4.0,14.0,13,0.00,,,0.00,,2013-05-16 20:20:00,
2013-05-16 15:30:00,91.0,33.0,29.93,West,281,4.0,14.0,13,0.00,,,0.00,,2013-05-16 20:30:00,
2013-05-16 15:40:00,-999.0,-99.9,29.93,West,281,4.0,14.0,13,0.00,,,0.00,,2013-05-16 20:40:00,
2013-05-16 15:51:00,91.0,33.0,29.93,West,265,3.0,18.0,13,0.00,,,0.00,,2013-05-16 20:51:00,
2013-05-16 16:00:00,91.0,-99.9,29.93,West,265,3.0,18.0,13,0.00,,,0.00,,2013-05-16 21:00:00,
2013-05-16 16:10:00,91.0,-99.9,29.93,West,265,3.0,18.0,13,0.00,,,0.00,,2013-05-16 21:10:00,
2013-05-16 16:20:00,91.0,-99.9,29.93,West,265,3.0,18.0,13,0.00,,,0.00,,2013-05-16 21:20:00,
2013-05-16 16:29:00,91.0,33.0,29.92,West,280,3.0,13.0,13,0.00,,,0.00,,2013-05-16 21:29:00,
2013-05-16 16:38:00,91.0,33.0,29.92,West,280,3.0,13.0,13,0.00,,,0.00,,2013-05-16 21:38:00,
2013-05-16 16:50:00,91.0,-99.9,29.92,West,280,3.0,13.0,13,0.00,,,0.00,,2013-05-16 21:50:00,
2013-05-16 17:00:00,-999.0,-99.9,29.91,WNW,299,1.0,18.0,12,0.00,,,0.00,,2013-05-16 22:00:00,
2013-05-16 17:08:00,91.0,31.0,29.91,WNW,299,1.0,18.0,12,0.00,,,0.00,,2013-05-16 22:08:00,
2013-05-16 17:21:00,91.0,31.0,29.91,WNW,299,1.0,18.0,12,0.00,,,0.00,,2013-05-16 22:21:00,
2013-05-16 17:30:00,91.0,33.0,29.90,West,261,0.0,11.0,13,0.00,,,0.00,,2013-05-16 22:30:00,
2013-05-16 17:40:00,91.0,33.0,29.90,West,261,0.0,11.0,13,0.00,,,0.00,,2013-05-16 22:40:00,
2013-05-16 17:51:00,91.0,33.0,29.90,West,261,0.0,11.0,13,0.00,,,0.00,,2013-05-16 22:51:00,
2013-05-16 18:01:00,91.0,31.0,29.89,WSW,243,3.0,8.0,12,0.00,,,0.00,,2013-05-16 23:01:00,
2013-05-16 18:06:00,91.0,31.0,29.89,WSW,243,3.0,8.0,12,0.00,,,0.00,,2013-05-16 23:06:00,
2013-05-16 18:16:00,90.0,31.0,29.87,West,278,1.0,13.0,12,0.00,,,0.00,,2013-05-16 23:16:00,
2013-05-16 18:24:00,90.0,31.0,29.87,West,278,1.0,13.0,12,0.00,,,0.00,,2013-05-16 23:24:00,
2013-05-16 18:35:00,90.0,31.0,29.87,West,278,1.0,13.0,12,0.00,,,0.00,,2013-05-16 23:35:00,
2013-05-16 18:45:00,90.0,31.0,29.87,West,278,1.0,13.0,12,0.00,,,0.00,,2013-05-16 23:45:00,
2013-05-16 18:54:00,89.0,30.0,29.89,WSW,247,0.0,3.0,12,0.00,,,0.00,,2013-05-16 23:54:00,
2013-05-16 19:02:00,89.0,30.0,29.89,WSW,247,0.0,3.0,12,0.00,,,0.00,,2013-05-17 00:02:00,
2013-05-16 19:13:00,89.0,30.0,29.89,WSW,247,0.0,3.0,12,0.00,,,0.00,,2013-05-17 00:13:00,
2013-05-16 19:22:00,89.0,30.0,29.86,SW,215,3.0,13.0,12,0.00,,,0.00,,2013-05-17 00:22:00,
2013-05-16 19:33:00,89.0,30.0,29.86,SW,215,3.0,13.0,12,0.00,,,0.00,,2013-05-17 00:33:00,
2013-05-16 19:44:00,89.0,30.0,29.86,SW,215,3.0,13.0,12,0.00,,,0.00,,2013-05-17 00:44:00,
2013-05-16 19:53:00,87.0,30.0,29.86,NW,323,1.0,6.0,13,0.00,,,0.00,,2013-05-17 00:53:00,
2013-05-16 20:03:00,87.0,30.0,29.86,NW,323,1.0,6.0,13,0.00,,,0.00,,2013-05-17 01:03:00,
2013-05-16 20:12:00,87.0,30.0,29.86,NW,323,1.0,6.0,13,0.00,,,0.00,,2013-05-17 01:12:00,
2013-05-16 20:23:00,86.0,29.0,29.87,West,268,0.0,4.0,13,0.00,,,0.00,,2013-05-17 01:23:00,
2013-05-16 20:32:00,86.0,29.0,29.87,West,268,0.0,4.0,13,0.00,,,0.00,,2013-05-17 01:32:00,
2013-05-16 20:44:00,86.0,29.0,29.87,West,268,0.0,4.0,13,0.00,,,0.00,,2013-05-17 01:44:00,
2013-05-16 20:52:00,83.0,29.0,29.87,WNW,291,0.0,1.0,14,0.00,,,0.00,,2013-05-17 01:52:00,
2013-05-16 21:02:00,83.0,29.0,29.87,WNW,291,0.0,1.0,14,0.00,,,0.00,,2013-05-17 02:02:00,
2013-05-16 21:11:00,83.0,29.0,29.87,WNW,291,0.0,1.0,14,0.00,,,0.00,,2013-05-17 02:11:00,
2013-05-16 21:21:00,81.0,29.0,29.88,West,277,0.0,0.0,15,0.00,,,0.00,,2013-05-17 02:21:00,
2013-05-16 21:32:00,81.0,29.0,29.88,West,277,0.0,0.0,15,0.00,,,0.00,,2013-05-17 02:32:00,
2013-05-16 21:42:00,81.0,29.0,29.88,West,277,0.0,0.0,15,0.00,,,0.00,,2013-05-17 02:42:00,
2013-05-16 21:53:00,79.0,27.0,29.87,WNW,302,0.0,1.0,15,0.00,,,0.00,,2013-05-17 02:53:00,
2013-05-16 22:02:00,79.0,27.0,29.87,WNW,302,0.0,1.0,15,0.00,,,0.00,,2013-05-17 03:02:00,
2013-05-16 22:11:00,79.0,27.0,29.87,WNW,302,0.0,1.0,15,0.00,,,0.00,,2013-05-17 03:11:00,
2013-05-16 22:22:00,79.0,27.0,29.90,NW,318,0.0,6.0,15,0.00,,,0.00,,2013-05-17 03:22:00,
2013-05-16 22:34:00,79.0,27.0,29.90,NW,318,0.0,6.0,15,0.00,,,0.00,,2013-05-17 03:34:00,
2013-05-16 22:43:00,79.0,27.0,29.90,NW,318,0.0,6.0,15,0.00,,,0.00,,2013-05-17 03:43:00,
2013-05-16 22:53:00,78.0,28.0,29.91,WNW,299,0.0,1.0,16,0.00,,,0.00,,2013-05-17 03:53:00,
2013-05-16 23:02:00,78.0,28.0,29.91,WNW,299,0.0,1.0,16,0.00,,,0.00,,2013-05-17 04:02:00,
2013-05-16 23:13:00,78.0,28.0,29.91,WNW,299,0.0,1.0,16,0.00,,,0.00,,2013-05-17 04:13:00,
2013-05-16 23:23:00,77.0,30.0,29.90,WNW,295,0.0,5.0,18,0.00,,,0.00,,2013-05-17 04:23:00,
2013-05-16 23:33:00,77.0,30.0,29.90,WNW,295,0.0,5.0,18,0.00,,,0.00,,2013-05-17 04:33:00,
2013-05-16 23:43:00,77.0,30.0,29.90,WNW,295,0.0,5.0,18,0.00,,,0.00,,2013-05-17 04:43:00,
2013-05-16 23:53:00,73.0,28.0,29.91,West,263,0.0,0.0,19,0.00,,,0.00,,2013-05-17 04:53:00,